Weather History for Indianapolis, IN

Change the Weather History Date:

Wednesday, May 29, 2013

  Actual Average (KEYE) Record (KEYE)
Temperature  
Mean Temperature 77 °F 67 °F  
Max Temperature 84 °F 77 °F 90 °F (2006)
Min Temperature 70 °F 58 °F 48 °F (2008)
Degree Days  
Heating Degree Days 0 2  
Month to date heating degree days 135  
Since 1 July heating degree days 5330  
Cooling Degree Days 12 4  
Month to date cooling degree days 62  
Year to date cooling degree days 77  
Growing Degree Days 27 (Base 50)    
Moisture  
Dew Point 59 °F    
Average Humidity 54    
Maximum Humidity 65    
Minimum Humidity 37    
Precipitation  
Precipitation 0.00 in 0.13 in 0.54 in (2014)
Month to date precipitation 4.99  
Year to date precipitation 16.53  
Sea Level Pressure  
Sea Level Pressure 30.01 in    
Wind  
Wind Speed 12 mph (SSW)    
Max Wind Speed 21 mph    
Max Gust Speed 29 mph    
Visibility 10 miles    
Events Thunderstorm    
T = Trace of Precipitation, MM = Missing Value Source: NWS Daily Summary

Daily Weather History Graph

Daily Weather History Graph

Search for Another Location

Airport:

Trip Planner

Search our weather history database for the weather conditions in past years. The results will help you decide how hot, cold, wet, or windy it might be!

Date:

Astronomy

May. 29, 2013 Rise Set
Actual Time 6:19 AM EDT 9:05 PM EDT
Civil Twilight 5:47 AM EDT 9:37 PM EDT
Nautical Twilight 5:07 AM EDT 10:18 PM EDT
Astronomical Twilight 4:21 AM EDT 11:04 PM EDT
Moon 12:28 AM EDT (5/29) 11:17 AM EDT (5/29)
Length of Visible Light 15h 50m
Length of Day
14h 46m
Waning Gibbous, 73% of the Moon is Illuminated
May 29
Waning Gibbous
May 31
Last Quarter
Jun 8
New
Jun 16
First Quarter
Jun 23
Full

Hourly Weather History & Observations

Time (EDT) Temp. Heat Index Dew Point Humidity Pressure Visibility Wind Dir Wind Speed Gust Speed Precip Events Conditions
12:15 AM 74.3 °F - 61.9 °F 65% 29.95 in 10.0 mi SSW 11.5 mph 16.1 mph N/A   Clear
12:35 AM 74.3 °F - 61.3 °F 64% 29.96 in 10.0 mi SSW 9.2 mph - N/A   Clear
12:55 AM 74.3 °F - 61.0 °F 63% 29.97 in 10.0 mi SSW 11.5 mph - N/A   Clear
1:15 AM 73.9 °F - 60.6 °F 63% 29.97 in 10.0 mi SSW 10.4 mph - N/A   Scattered Clouds
1:35 AM 73.9 °F - 60.3 °F 62% 29.97 in 10.0 mi SSW 11.5 mph - N/A   Mostly Cloudy
1:55 AM 74.7 °F - 59.0 °F 58% 29.97 in 10.0 mi SSW 15.0 mph 20.7 mph N/A   Overcast
2:15 AM 74.1 °F - 58.5 °F 58% 29.96 in 10.0 mi SSW 17.3 mph - N/A   Mostly Cloudy
2:35 AM 73.4 °F - 58.1 °F 59% 29.96 in 10.0 mi SSW 11.5 mph - N/A   Clear
2:55 AM 72.9 °F - 57.2 °F 58% 29.96 in 10.0 mi SSW 13.8 mph 20.7 mph N/A   Clear
3:15 AM 72.9 °F - 56.8 °F 57% 29.98 in 10.0 mi SSW 11.5 mph 16.1 mph N/A   Mostly Cloudy
3:35 AM 72.9 °F - 56.7 °F 57% 29.98 in 10.0 mi SSW 11.5 mph 17.3 mph N/A Thunderstorm Overcast
3:55 AM 72.7 °F - 56.5 °F 57% 29.98 in 10.0 mi SSW 11.5 mph - N/A   Overcast
4:15 AM 72.1 °F - 56.1 °F 57% 29.98 in 10.0 mi SSW 12.7 mph 18.4 mph N/A   Mostly Cloudy
4:35 AM 72.3 °F - 55.9 °F 56% 29.98 in 10.0 mi SSW 11.5 mph - N/A   Scattered Clouds
4:55 AM 71.6 °F - 55.9 °F 58% 29.99 in 10.0 mi SSW 11.5 mph - N/A   Scattered Clouds
5:15 AM 72.1 °F - 55.6 °F 56% 29.99 in 10.0 mi SSW 13.8 mph 21.9 mph N/A   Mostly Cloudy
5:35 AM 71.6 °F - 55.6 °F 57% 29.99 in 10.0 mi SW 12.7 mph - N/A   Scattered Clouds
5:55 AM 70.9 °F - 55.6 °F 58% 30.00 in 10.0 mi SSW 12.7 mph - N/A   Clear
6:15 AM 70.7 °F - 55.8 °F 59% 30.00 in 10.0 mi SSW 10.4 mph - N/A   Clear
6:35 AM 70.2 °F - 55.8 °F 60% 30.02 in 10.0 mi SW 12.7 mph 17.3 mph N/A   Clear
6:55 AM 70.3 °F - 55.8 °F 60% 30.02 in 10.0 mi SSW 12.7 mph 20.7 mph N/A   Clear
7:15 AM 70.0 °F - 56.3 °F 62% 30.03 in 10.0 mi SW 11.5 mph 19.6 mph N/A   Clear
7:35 AM 70.7 °F - 56.8 °F 61% 30.03 in 10.0 mi SSW 11.5 mph - N/A   Clear
7:55 AM 70.9 °F - 57.2 °F 62% 30.03 in 10.0 mi SSW 11.5 mph - N/A   Clear
8:15 AM 70.9 °F - 57.4 °F 62% 30.04 in 10.0 mi SSW 10.4 mph - N/A   Clear
8:35 AM 71.2 °F - 57.7 °F 62% 30.03 in 10.0 mi SSW 11.5 mph - N/A   Clear
8:55 AM 72.5 °F - 57.9 °F 60% 30.03 in 10.0 mi SSW 11.5 mph 17.3 mph N/A   Clear
9:15 AM 73.6 °F - 58.6 °F 59% 30.02 in 10.0 mi SSW 13.8 mph - N/A   Clear
9:35 AM 74.8 °F - 59.4 °F 58% 30.02 in 10.0 mi SSW 15.0 mph 19.6 mph N/A   Clear
9:55 AM 75.7 °F - 59.0 °F 56% 30.02 in 10.0 mi SW 16.1 mph 23.0 mph N/A   Clear
10:15 AM 76.5 °F - 59.9 °F 56% 30.03 in 10.0 mi SW 16.1 mph 21.9 mph N/A   Clear
10:35 AM 77.0 °F - 60.3 °F 56% 30.03 in 10.0 mi SSW 18.4 mph - N/A   Clear
10:55 AM 78.4 °F - 61.5 °F 56% 30.03 in 10.0 mi SSW 16.1 mph 20.7 mph N/A   Clear
11:15 AM 78.4 °F - 60.8 °F 55% 30.03 in 10.0 mi SW 20.7 mph 26.5 mph N/A   Clear
11:35 AM 78.8 °F - 61.7 °F 56% 30.03 in 10.0 mi SSW 17.3 mph 28.8 mph N/A   Clear
11:55 AM 79.5 °F - 62.8 °F 56% 30.04 in 10.0 mi SSW 15.0 mph 25.3 mph N/A   Clear
12:15 PM 79.9 °F - 62.2 °F 55% 30.04 in 10.0 mi SSW 18.4 mph 25.3 mph N/A   Clear
12:35 PM 80.1 °F 81.1 °F 61.5 °F 53% 30.04 in 10.0 mi WSW 20.7 mph 27.6 mph N/A   Clear
12:55 PM 80.8 °F 82.0 °F 63.0 °F 54% 30.05 in 10.0 mi SW 16.1 mph - N/A   Scattered Clouds
1:15 PM 80.6 °F 81.6 °F 61.3 °F 52% 30.04 in 10.0 mi WSW 15.0 mph 23.0 mph N/A   Scattered Clouds
1:35 PM 81.5 °F 82.2 °F 61.3 °F 50% 30.04 in 10.0 mi SW 17.3 mph 21.9 mph N/A   Scattered Clouds
1:55 PM 81.7 °F 82.6 °F 62.1 °F 51% 30.03 in 10.0 mi SW 15.0 mph 20.7 mph N/A   Scattered Clouds
2:15 PM 82.0 °F 82.8 °F 61.5 °F 50% 30.04 in 10.0 mi SW 17.3 mph 21.9 mph N/A   Scattered Clouds
2:35 PM 82.9 °F 83.5 °F 61.3 °F 48% 30.04 in 10.0 mi SW 17.3 mph 21.9 mph N/A   Scattered Clouds
2:55 PM 82.6 °F 83.1 °F 60.8 °F 48% 30.04 in 10.0 mi SSW 17.3 mph - N/A   Scattered Clouds
3:15 PM 82.6 °F 82.9 °F 60.4 °F 47% 30.04 in 10.0 mi SW 16.1 mph 21.9 mph N/A   Mostly Cloudy
3:35 PM 83.7 °F 83.9 °F 61.2 °F 46% 30.04 in 10.0 mi WSW 13.8 mph - N/A   Scattered Clouds
3:55 PM 84.6 °F 85.0 °F 61.9 °F 46% 30.03 in 10.0 mi SSW 15.0 mph - N/A   Scattered Clouds
4:15 PM 84.6 °F 84.2 °F 59.2 °F 42% 30.03 in 10.0 mi SSW 13.8 mph 20.7 mph N/A   Scattered Clouds
4:35 PM 83.7 °F 83.4 °F 59.0 °F 43% 30.02 in 10.0 mi SSW 13.8 mph 18.4 mph N/A   Scattered Clouds
4:55 PM 82.9 °F 83.0 °F 59.4 °F 45% 30.02 in 10.0 mi SSW 15.0 mph 18.4 mph N/A   Clear
5:15 PM 84.2 °F 83.7 °F 57.9 °F 41% 30.02 in 10.0 mi SSW 15.0 mph - N/A   Scattered Clouds
5:35 PM 84.4 °F 84.0 °F 58.8 °F 42% 30.02 in 10.0 mi South 15.0 mph 19.6 mph N/A   Scattered Clouds
5:55 PM 82.6 °F 82.0 °F 56.1 °F 40% 30.02 in 10.0 mi SSW 16.1 mph - N/A   Scattered Clouds
6:15 PM 83.3 °F 82.3 °F 55.0 °F 38% 30.01 in 10.0 mi SSW 11.5 mph - N/A   Scattered Clouds
6:35 PM 84.2 °F 83.0 °F 55.6 °F 37% 30.01 in 10.0 mi South 13.8 mph - N/A   Clear
6:55 PM 83.3 °F 82.2 °F 54.5 °F 37% 30.00 in 10.0 mi South 15.0 mph 18.4 mph N/A   Clear
7:15 PM 82.4 °F 81.8 °F 55.8 °F 40% 30.00 in 10.0 mi SSW 9.2 mph - N/A   Clear
7:35 PM 82.4 °F 81.9 °F 56.3 °F 41% 29.99 in 10.0 mi South 10.4 mph - N/A   Clear
7:55 PM 81.7 °F 81.5 °F 57.0 °F 43% 29.99 in 10.0 mi South 6.9 mph - N/A   Clear
8:15 PM 80.8 °F 81.0 °F 57.7 °F 45% 29.99 in 10.0 mi SSW 8.1 mph - N/A   Clear
8:35 PM 79.9 °F - 58.5 °F 48% 29.99 in 10.0 mi South 9.2 mph - N/A   Clear
8:55 PM 79.0 °F - 58.6 °F 50% 29.99 in 10.0 mi South 9.2 mph - N/A   Clear
9:15 PM 77.7 °F - 59.4 °F 53% 29.99 in 10.0 mi South 5.8 mph - N/A   Clear
9:35 PM 75.6 °F - 60.3 °F 59% 29.99 in 10.0 mi South 4.6 mph - N/A   Clear
9:55 PM 74.3 °F - 60.8 °F 63% 30.00 in 10.0 mi SSE 4.6 mph - N/A   Clear
10:15 PM 73.4 °F - 60.8 °F 65% 30.01 in 10.0 mi SSE 4.6 mph - N/A   Clear
10:35 PM 75.0 °F - 60.1 °F 60% 30.02 in 10.0 mi South 6.9 mph - N/A   Clear
10:55 PM 75.2 °F - 60.3 °F 60% 30.01 in 10.0 mi SSE 6.9 mph - N/A   Clear
11:15 PM 75.2 °F - 60.1 °F 59% 30.02 in 10.0 mi South 6.9 mph - N/A   Clear
11:35 PM 75.2 °F - 60.3 °F 60% 30.02 in 10.0 mi South 6.9 mph - N/A   Clear
11:55 PM 74.8 °F - 60.4 °F 61% 30.03 in 10.0 mi South 8.1 mph - N/A   Clear